Weather History for Fairfield, IL

Change the Weather History Date:

Saturday, October 19, 2013

  Actual Average (KMVN) Record (KMVN)
Temperature  
Mean Temperature 48 °F -  
Max Temperature 55 °F 64 °F 84 °F (2005)
Min Temperature 42 °F 42 °F 30 °F (1996)
Degree Days  
Heating Degree Days 16    
Moisture  
Dew Point 37 °F    
Average Humidity 68    
Maximum Humidity 87    
Minimum Humidity 33    
Precipitation  
Precipitation 0.26 in - - ()
Sea Level Pressure  
Sea Level Pressure 29.98 in    
Wind  
Wind Speed 3 mph (West)    
Max Wind Speed 10 mph    
Max Gust Speed 17 mph    
Visibility 10 miles    
Events Rain    
Averages and records for this station are not official NWS values.
T = Trace of Precipitation, MM = Missing Value Source: NWS Daily Summary

Daily Weather History Graph

Daily Weather History Graph

Search for Another Location

Airport:

Trip Planner

Search our weather history database for the weather conditions in past years. The results will help you decide how hot, cold, wet, or windy it might be!

Date:

Astronomy

Oct. 19, 2013 Rise Set
Actual Time 7:06 AM CDT 6:09 PM CDT
Civil Twilight 6:39 AM CDT 6:36 PM CDT
Nautical Twilight 6:09 AM CDT 7:07 PM CDT
Astronomical Twilight 5:38 AM CDT 7:37 PM CDT
Moon 6:38 PM CDT (10/19) 7:43 AM CDT (10/19)
Length of Visible Light 11h 56m
Length of Day
11h 02m
Waxing Gibbous, 99% of the Moon is Illuminated
Oct 19
Waxing Gibbous
Oct 26
Last Quarter
Nov 3
New
Nov 9
First Quarter
Nov 17
Full

Hourly Weather History & Observations

Time (CDT) Temp. Windchill Dew Point Humidity Pressure Visibility Wind Dir Wind Speed Gust Speed Precip Events Conditions
12:15 AM 51.8 °F - 42.8 °F 71% 29.96 in 10.0 mi Calm Calm - N/A Rain Light Rain
12:35 AM 51.8 °F - 44.6 °F 76% 29.97 in 10.0 mi Calm Calm - N/A Rain Light Rain
12:55 AM 50.0 °F - 44.6 °F 82% 29.97 in 10.0 mi Calm Calm - 0.01 in Rain Rain
1:15 AM 48.2 °F - 44.6 °F 87% 29.98 in 10.0 mi Calm Calm - 0.02 in Rain Rain
1:35 AM 48.2 °F - 42.8 °F 82% 29.97 in 10.0 mi NW 3.5 mph - 0.02 in Rain Rain
1:55 AM 48.2 °F - 42.8 °F 82% 29.97 in 10.0 mi NNW 3.5 mph - 0.04 in Rain Rain
2:15 AM 48.2 °F - 42.8 °F 82% 29.96 in 10.0 mi North 4.6 mph - 0.02 in Rain Light Rain
2:35 AM 48.2 °F - 42.8 °F 82% 29.95 in 10.0 mi North 4.6 mph - 0.04 in Rain Rain
2:55 AM 48.2 °F - 42.8 °F 82% 29.93 in 10.0 mi NNE 4.6 mph - 0.05 in Rain Rain
3:15 AM 46.4 °F 45.2 °F 42.8 °F 87% 29.93 in 10.0 mi North 3.5 mph - N/A Rain Light Rain
3:35 AM 46.4 °F 45.2 °F 42.8 °F 87% 29.96 in 7.0 mi WNW 3.5 mph - 0.04 in Rain Rain
3:55 AM 46.4 °F 45.2 °F 42.8 °F 87% 29.95 in 7.0 mi NW 3.5 mph - 0.05 in Rain Light Rain
4:15 AM 46.4 °F 43.5 °F 42.8 °F 87% 29.95 in 7.0 mi NW 5.8 mph - 0.01 in Rain Light Rain
4:35 AM 46.4 °F 45.2 °F 42.8 °F 87% 29.94 in 10.0 mi NNW 3.5 mph - 0.02 in Rain Rain
4:55 AM 46.4 °F - 41.0 °F 81% 29.94 in 10.0 mi Calm Calm - 0.03 in Rain Light Rain
5:15 AM 46.4 °F 45.2 °F 42.8 °F 87% 29.95 in 7.0 mi NNW 3.5 mph - 0.02 in Rain Rain
5:35 AM 46.4 °F 45.2 °F 42.8 °F 87% 29.96 in 7.0 mi NW 3.5 mph - 0.03 in Rain Light Rain
5:55 AM 46.4 °F 44.3 °F 41.0 °F 81% 29.96 in 10.0 mi NW 4.6 mph - 0.04 in Rain Light Rain
6:15 AM 46.4 °F 43.5 °F 41.0 °F 81% 29.95 in 10.0 mi NW 5.8 mph - 0.01 in Rain Rain
6:35 AM 46.4 °F 44.3 °F 41.0 °F 81% 29.96 in 10.0 mi NW 4.6 mph - 0.03 in Rain Rain
6:55 AM 44.6 °F 42.2 °F 41.0 °F 87% 29.96 in 10.0 mi WNW 4.6 mph - 0.03 in Rain Light Rain
7:15 AM 44.6 °F 42.2 °F 39.2 °F 81% 29.97 in 10.0 mi WNW 4.6 mph - 0.01 in Rain Light Rain
7:35 AM 44.6 °F 42.2 °F 39.2 °F 81% 29.98 in 10.0 mi West 4.6 mph - 0.01 in Rain Rain
7:55 AM 44.6 °F - 39.2 °F 81% 29.98 in 10.0 mi Calm Calm - 0.01 in   Drizzle
8:15 AM 44.6 °F 42.2 °F 39.2 °F 81% 29.98 in 10.0 mi WNW 4.6 mph - N/A   Light Drizzle
8:35 AM 44.6 °F 41.4 °F 39.2 °F 81% 29.99 in 10.0 mi WNW 5.8 mph - N/A   Overcast
8:55 AM 44.6 °F 41.4 °F 37.4 °F 76% 29.99 in 10.0 mi WNW 5.8 mph - N/A   Overcast
9:15 AM 44.6 °F 40.7 °F 37.4 °F 76% 30.00 in 10.0 mi WNW 6.9 mph - N/A   Mostly Cloudy
9:35 AM 44.6 °F 41.4 °F 37.4 °F 76% 30.00 in 10.0 mi NW 5.8 mph - N/A   Scattered Clouds
9:55 AM 44.6 °F 40.2 °F 37.4 °F 76% 30.00 in 10.0 mi NW 8.1 mph - N/A   Mostly Cloudy
10:15 AM 46.4 °F 44.3 °F 37.4 °F 71% 30.00 in 10.0 mi WNW 4.6 mph - N/A   Mostly Cloudy
10:35 AM 46.4 °F 42.9 °F 37.4 °F 71% 30.01 in 10.0 mi WNW 6.9 mph - N/A   Mostly Cloudy
10:55 AM 48.2 °F - 37.4 °F 66% 30.01 in 10.0 mi WNW 6.9 mph - N/A   Mostly Cloudy
11:15 AM 48.2 °F - 37.4 °F 66% 30.01 in 10.0 mi Calm Calm - N/A   Scattered Clouds
11:35 AM 50.0 °F - 37.4 °F 62% 30.00 in 10.0 mi West 5.8 mph - N/A   Scattered Clouds
11:55 AM 51.8 °F - 37.4 °F 58% 30.00 in 10.0 mi West 5.8 mph - N/A   Scattered Clouds
1:55 PM 55.4 °F - 32.0 °F 41% 29.99 in 10.0 mi West 6.9 mph - N/A   Scattered Clouds
2:15 PM 55.4 °F - 32.0 °F 41% 29.98 in 10.0 mi West 5.8 mph - N/A   Scattered Clouds
2:35 PM 55.4 °F - 30.2 °F 38% 29.98 in 10.0 mi West 5.8 mph - N/A   Clear
2:55 PM 55.4 °F - 30.2 °F 38% 29.98 in 10.0 mi West 8.1 mph - N/A   Clear
3:15 PM 55.4 °F - 30.2 °F 38% 29.98 in 10.0 mi West 4.6 mph - N/A   Clear
3:35 PM 55.4 °F - 30.2 °F 38% 29.98 in 10.0 mi WSW 4.6 mph - N/A   Clear
3:55 PM 55.4 °F - 30.2 °F 38% 29.98 in 10.0 mi West 6.9 mph - N/A   Scattered Clouds
4:15 PM 55.4 °F - 26.6 °F 33% 29.98 in 10.0 mi West 5.8 mph - N/A   Scattered Clouds
4:35 PM 55.4 °F - 28.4 °F 36% 29.98 in 10.0 mi WSW 6.9 mph 17.3 mph N/A   Scattered Clouds
4:55 PM 55.4 °F - 26.6 °F 33% 29.98 in 10.0 mi West 8.1 mph - N/A   Scattered Clouds
5:15 PM 55.4 °F - 28.4 °F 36% 29.98 in 10.0 mi WSW 10.4 mph - N/A   Clear
5:35 PM 55.4 °F - 28.4 °F 36% 29.97 in 10.0 mi WSW 6.9 mph - N/A   Clear
5:55 PM 53.6 °F - 30.2 °F 41% 29.97 in 10.0 mi WSW 4.6 mph - N/A   Clear
6:15 PM 51.8 °F - 32.0 °F 47% 29.98 in 10.0 mi SW 4.6 mph - N/A   Clear
6:35 PM 48.2 °F - 35.6 °F 62% 29.98 in 10.0 mi SW 3.5 mph - N/A   Clear
6:55 PM 46.4 °F 44.3 °F 33.8 °F 62% 29.99 in 10.0 mi SW 4.6 mph - N/A   Clear
7:15 PM 46.4 °F 45.2 °F 35.6 °F 66% 29.99 in 10.0 mi South 3.5 mph - N/A   Clear
7:35 PM 46.4 °F 44.3 °F 33.8 °F 62% 30.00 in 10.0 mi SSW 4.6 mph - N/A   Clear
7:55 PM 46.4 °F - 33.8 °F 62% 30.00 in 10.0 mi Calm Calm - N/A   Clear
8:15 PM 46.4 °F - 33.8 °F 62% 30.00 in 10.0 mi Calm Calm - N/A   Clear
8:35 PM 44.6 °F 43.1 °F 35.6 °F 71% 30.00 in 10.0 mi South 3.5 mph - N/A   Clear
8:55 PM 44.6 °F 43.1 °F 33.8 °F 66% 30.00 in 10.0 mi SSW 3.5 mph - N/A   Clear
9:15 PM 44.6 °F 42.2 °F 33.8 °F 66% 30.01 in 10.0 mi SSW 4.6 mph - N/A   Clear
9:35 PM 44.6 °F 42.2 °F 33.8 °F 66% 30.01 in 10.0 mi SSW 4.6 mph - N/A   Clear
9:55 PM 42.8 °F 41.1 °F 33.8 °F 70% 30.02 in 10.0 mi SSW 3.5 mph - N/A   Clear
10:15 PM 42.8 °F 40.1 °F 33.8 °F 70% 30.02 in 10.0 mi SSW 4.6 mph - N/A   Clear
10:35 PM 42.8 °F 41.1 °F 35.6 °F 76% 30.02 in 10.0 mi SSW 3.5 mph - N/A   Clear
10:55 PM 42.8 °F 41.1 °F 35.6 °F 76% 30.02 in 10.0 mi SSW 3.5 mph - N/A   Clear
11:15 PM 42.8 °F 40.1 °F 35.6 °F 76% 30.02 in 10.0 mi SSW 4.6 mph - N/A   Clear
11:35 PM 42.8 °F 41.1 °F 35.6 °F 76% 30.02 in 10.0 mi SSW 3.5 mph - N/A   Clear
11:55 PM 42.8 °F 40.1 °F 35.6 °F 76% 30.01 in 10.0 mi South 4.6 mph - N/A   Clear